Location: Oberkirch
(48.5323°N, 8.0787°E)
Time: 07:50:09
(UTC+00:00)

Cosmos 2251 Rocket - Pass Details

Date: 08 November 2025
Orbit: 760 x 788 km, 74.0° (Epoch: 12 December)

Event Time Altitude Azimuth Distance (km) Brightness Sun altitude
Exits shadow 05:11:34 - 335° (NNW) 3,274 6.4 -12.4°
Reaches altitude 10° 05:13:56 10° 334° (NNW) 2,356 5.7 -12.0°
Maximum altitude 05:19:17 75° 250° (WSW) 820 3.5 -11.1°
Drops below altitude 10° 05:24:37 10° 166° (SSE) 2,345 6.4 -10.3°
Sets 05:27:00 0° 165° (SSE) 3,269 7.2 -9.9°
